This is the latest recevied weather packets stored in our database for station/object DM8MH-13. If no packets are shown the sender has not sent any weather packets the latest 10 day(s).
| Time | Temp. | Humidity | Pressure | Rain* | Wind** | Luminosity | Snow |
|---|---|---|---|---|---|---|---|
| 1788096682 | 25.56° C | 50% | 1011.7 hPa | 0 mm | - | 261 W/m² | - |
| 1788096070 | 25.56° C | 51% | 1011.7 hPa | 0 mm | - | 610 W/m² | - |
| 1788095470 | 25.56° C | 53% | 1011.6 hPa | 0 mm | - | 648 W/m² | - |
| 1788094870 | 25.56° C | 53% | 1011.6 hPa | 0 mm | - | 681 W/m² | - |
| 1788094271 | 25° C | 55% | 1011.7 hPa | 0 mm | - | 653 W/m² | - |
| 1788093671 | 24.44° C | 57% | 1011.6 hPa | 0 mm | - | 675 W/m² | - |
| 1788092470 | 24.44° C | 60% | 1011.7 hPa | 0 mm | - | 708 W/m² | - |
| 1788091871 | 23.89° C | 62% | 1011.6 hPa | 0 mm | - | 813 W/m² | - |
| 1788091270 | 23.89° C | 63% | 1011.4 hPa | 0 mm | - | 266 W/m² | - |
| 1788090670 | 23.89° C | 62% | 1011.4 hPa | 0 mm | - | 198 W/m² | - |
| 1788090070 | 23.33° C | 63% | 1011.4 hPa | 0 mm | - | 610 W/m² | - |
| 1788089470 | 23.33° C | 64% | 1011.5 hPa | 0 mm | - | 219 W/m² | - |
| 1788088870 | 23.33° C | 63% | 1011.5 hPa | 0 mm | - | 223 W/m² | - |
| 1788088272 | 23.33° C | 64% | 1011.4 hPa | 0 mm | - | 581 W/m² | - |
| 1788087670 | 22.78° C | 65% | 1011.5 hPa | 0 mm | - | 678 W/m² | - |
| 1788087071 | 22.78° C | 66% | 1011.6 hPa | 0 mm | - | 745 W/m² | - |
| 1788086470 | 22.22° C | 70% | 1011.6 hPa | 0 mm | - | 587 W/m² | - |
| 1788085870 | 21.67° C | 73% | 1011.7 hPa | 0 mm | - | 566 W/m² | - |
| 1788085270 | 21.11° C | 74% | 1011.8 hPa | 0 mm | - | 355 W/m² | - |
| 1788084671 | 21.11° C | 75% | 1011.7 hPa | 0 mm | - | 679 W/m² | - |
| 1788084072 | 20.56° C | 75% | 1011.5 hPa | 0 mm | - | 232 W/m² | - |
| 1788081671 | 19.44° C | 81% | 1011.5 hPa | 0 mm | - | 206 W/m² | - |
| 1788081070 | 18.89° C | 84% | 1011.5 hPa | 0 mm | - | 201 W/m² | - |
| 1788079870 | 18.89° C | 82% | 1011.5 hPa | 0 mm | - | 69 W/m² | - |
| 1788079270 | 20.56° C | 78% | 1011.5 hPa | 0 mm | - | 98 W/m² | - |
* Rain latest hour (hover to see other rain measurements)
** Current wind speed in m/s (hover to see current wind gust speed)